www.pogodaiklimat.ru

Погода и климат >> Архив погоды >> Оман >> Ибри


ПОГОДА в Ибри

  • Прогноз погоды в Ибри
  • Монитор погоды в Ибри

АРХИВ ПОГОДЫ в Ибри

Время (UTC), дата Ветер
(напр.,м/с)
 
Видим.   Явления Облачность Т
(С)
Тd
(С)
f
(%)
Тe
(С)
Тes
(С)
Комфортность P
(гПа)
Po
(гПа)
Тmin
(С)
Tmax
(С)
R
(мм)
R24
(мм)
S
(см)
09 12.08 Ю 2 7000 м мгла 4/4 750 м
[Cu med, cong]
+43.1 +20.7 28 +49 +61 опасность
перегрева
993.2 959.6
12 12.08 В 4 6000 м мгла 6/6 750 м
[Cu med, cong]
+30.7 +21.2 57 +38 +40 очень
душно
996.6 961.6 15
15 12.08 В 4 8000 м мгла 5/3 750 м
[Cu med, cong Ac lent]
+32.5 +21.1 51 +40 +40 очень
душно
995.4 960.6
03 13.08 В 2 н/о н/о +32.1 +21.3 53 +40 +40 очень
душно
997.7 963.2
06 13.08 ЮВ 3 н/о н/о +35.8 +16.4 32 +38 +38 очень
душно
998.4 964.2 +29.7
09 13.08 ЮЗ 2 н/о н/о +38.2 +14.7 25 +39 +39 очень
душно
997.0 963.1
12 13.08 С 2 8000 м мгла 5/0
[Ci]
+40.9 +15.0 22 +42 +49 опасность
перегрева
995.6 961.6
15 13.08 З 1 н/о н/о +40.2 +16.4 25 +42 +42 опасность
перегрева
995.7 962.1
18 13.08 СВ 1 н/о н/о +36.5 +20.3 39 +43 +43 опасность
перегрева
997.8 963.7 +41.7
21 13.08 ЮВ 3 н/о н/о +33.3 +17.4 39 +37 +37 очень
душно
997.8 963.4
00 14.08 В 2 н/о н/о +31.3 +19.1 48 +37 +37 очень
душно
998.1 963.5
03 14.08 ЮВ 2 н/о н/о +30.0 +21.0 59 +38 +38 очень
душно
999.7 964.8
06 14.08 Ю 2 н/о н/о +35.7 +17.8 35 +39 +39 очень
душно
999.7 965.5 +29.8
09 14.08 З 2 н/о н/о +42.0 +17.7 25 +45 +45 опасность
перегрева
996.6 963.2
12 14.08 СВ 8 н/о н/о +43.8 +11.9 15 +43 +43 опасность
перегрева
994.8 961.5
15 14.08 СВ 8 н/о н/о +40.5 +9.1 15 +39 +39 очень
жарко
996.1 962.5
18 14.08 В 4 н/о н/о +38.7 +10.0 18 +37 +37 очень
жарко
997.9 964.0 +44.8
21 14.08 ЮВ 2 н/о н/о +33.7 +19.4 43 +39 +39 очень
душно
998.8 964.4
00 15.08 ЮВ 2 н/о н/о +31.6 +18.4 45 +36 +36 очень
душно
999.3 964.7
03 15.08 В 2 н/о н/о +30.9 +18.9 49 +36 +36 очень
душно
1001.1 966.3
06 15.08 Ю 2 н/о н/о +36.5 +18.6 35 +41 +41 опасность
перегрева
1000.8 966.6 +30.4
09 15.08 СВ 5 н/о н/о +43.5 +7.8 12 +41 +41 опасность
перегрева
997.4 963.9
12 15.08 СВ 7 н/о н/о +43.7 +8.5 12 +42 +42 опасность
перегрева
995.6 962.3
15 15.08 СВ 5 7000 м пыль ясно +41.2 +8.4 14 +39 +39 очень
жарко
996.7 962.6
18 15.08 СВ 4 н/о н/о +38.7 +11.8 20 +38 +38 очень
жарко
998.4 964.5 +44.6
21 15.08 Ю 3 н/о н/о +33.6 +20.7 47 +41 +41 опасность
перегрева
999.7 965.3
00 16.08 ЮВ 3 н/о н/о +31.1 +20.8 54 +38 +38 очень
душно
999.5 964.8
03 16.08 Ю 2 н/о н/о +29.4 +20.7 60 +37 +37 очень
душно
1001.1 966.1
06 16.08 Ю 2 н/о н/о +34.9 +20.6 43 +41 +41 опасность
перегрева
1000.9 966.6 +29.0
09 16.08 СЗ 2 н/о н/о +40.4 +15.6 23 +42 +42 опасность
перегрева
997.9 964.2
12 16.08 СЗ 3 н/о н/о +43.4 +12.3 16 +43 +43 опасность
перегрева
994.5 961.2
15 16.08 СВ 5 10 км ясно +42.1 +4.2 10 +39 +39 очень
жарко
995.5 961.5
18 16.08 СВ 3 н/о н/о +39.2 +9.3 17 +38 +38 очень
жарко
996.4 962.5 +44.0
21 16.08 ЮВ 6 н/о н/о +33.8 +20.7 46 +41 +41 опасность
перегрева
997.3 963.0
00 17.08 В 2 н/о н/о +31.9 +20.7 52 +39 +39 очень
душно
997.3 962.8
03 17.08 ЮВ 3 н/о н/о +31.0 +21.2 56 +39 +39 очень
душно
998.6 963.9
06 17.08 Ю 4 н/о н/о +35.6 +18.9 38 +40 +40 очень
душно
999.3 965.1 +30.6
09 17.08 ЮВ 2 10 км 3/3 840 м
[Cu med, cong]
+41.0 +15.1 22 +42 +56 опасность
перегрева
996.8 962.8
12 17.08 СЗ 3 н/о н/о +43.3 +13.2 17 +43 +43 опасность
перегрева
993.8 960.6
15 17.08 С 2 н/о н/о +41.7 +12.2 18 +41 +41 опасность
перегрева
994.2 960.7
18 17.08 В 4 н/о н/о +38.7 +17.5 29 +42 +42 опасность
перегрева
995.8 962.0 +44.0
21 17.08 Ю 9 н/о н/о +35.1 +17.0 34 +38 +38 очень
душно
997.1 962.8
00 18.08 ЮВ 3 н/о н/о +33.0 +18.8 43 +38 +38 очень
душно
998.3 963.9
03 18.08 Ю 2 н/о н/о +30.9 +19.8 52 +37 +37 очень
душно
1000.3 965.6
06 18.08 ЮВ 4 н/о н/о +37.5 +10.3 19 +36 +36 очень
жарко
1000.5 966.4 +30.6
09 18.08 ЮЗ 3 н/о н/о +40.4 +14.2 21 +41 +41 опасность
перегрева
998.9 965.2
12 18.08 СЗ 1 н/о н/о +43.0 +14.1 19 +44 +44 опасность
перегрева
996.4 963.0
15 18.08 СВ 6 н/о н/о +40.4 +17.9 27 +43 +43 опасность
перегрева
997.1 963.4
18 18.08 СВ 5 н/о н/о +37.9 +20.0 35 +43 +43 опасность
перегрева
998.9 964.9 +43.4
21 18.08 Ю 7 н/о н/о +33.5 +20.9 48 +41 +41 опасность
перегрева
1000.0 965.6
00 19.08 ЮВ 2 н/о н/о +32.0 +21.3 53 +40 +40 очень
душно
1000.4 965.8
03 19.08 Ю 2 н/о н/о +30.6 +21.5 58 +39 +39 очень
душно
1002.4 967.6
06 19.08 З 2 8000 м мгла ясно +35.6 +20.0 40 +41 +58 опасность
перегрева
1003.4 968.7 +30.4

 

Местоположение метеостанции Ибри (Оман): широта 23.42 долгота 56.52 высота над уровнем моря 244 м.

В архиве по умолчанию представлена погода в Ибри за последнюю неделю. Архивные данные за месяц целиком и за предыдущие месяцы, начиная с января 2011 года, Вы можете получить, выбрав интересующий диапазон дат из раскрывающегося списка и нажав кнопку "Ввод!".


*Определитесь, кто Вы:
робот инопланетянин человек

Внимание! Время в таблицах - всемирное. Для получения местного времени необходимо прибавить поправку, которая равна 4 ч.

Смотрите также архив погоды в соседних городах и на ближайших метеорологических станциях:

Погода в Кумейре (Оман) (65 км)
Погода на Эш-Шам (Оман) (79 км)
Погода в Эс-Сувейке (Оман) (88 км)
Погода в Рустаке (Оман) (92 км)
Погода в Бахле (Оман) (94 км)
Погода в Сухаре (Оман) (117 км)
Погода в Эль-Бурайми (Оман) (117 км)
Погода в Саике (Оман) (120 км)
Погода в Назве (Оман) (121 км)
Погода в Фахуде (Оман) (121 км)

Пояснения к столбцам:

Ветер - указаны скорость ветра в м/с - средняя за 10 мин, порывы в срок и между сроками (в фигурных скобках) и направление, откуда дует ветер: С - северный, СВ - северо-восточный, В - восточный, ЮВ - юго-восточный, Ю - южный, ЮЗ - юго-западный, З - западный, СЗ - северо-западный.
Видимость - горизонтальная дальность видимости в метрах или километрах. При видимости от 1 до 10 км при отсутствии осадков обычно наблюдается дымка, при ухудшении видимости до 1 км и менее - туман. В сухую погоду видимость может ухудшаться дымом, пылью или мглою.
Явления - указаны атмосферные явления, наблюдавшиеся в срок или в последний час перед сроком; фигурными скобками обозначены явления, наблюдавшиеся между сроками (за 1-3 часа до срока); квадратными скобками обозначены град или гололедные отложения с указанием их диаметра в мм.
Облачность - указаны через наклонную черту общая и нижняя облачность в баллах и высота нижней границы облаков в метрах; квадратными скобками обозначены формы облаков: Ci - перистые, Cs - перисто-слоистые, Cc - перисто-кучевые, Ac - высококучевые, As - высокослоистые, Sc - слоисто-кучевые, Ns - слоисто-дождевые, Cu - кучевые, Cb - кучево-дождевые. Подробнее классификацию облаков см. в Атласе облаков (PDF).
T - Температура воздуха - температура, измеренная на высоте 2 м над землей.
Td - Температура точки росы - температура, при понижении до которой содержащийся в воздухе водяной пар достигнет насыщения.
f - Относительная влажность воздуха - влажноcть воздуха, измеренная на высоте 2 м над землей.
Te - Эффективная температура - температура, которую ощущает одетый по сезону человек в тени. Характеристика душности погоды. При расчете учитывается влияние влажности воздуха и скорости ветра на теплоощущения человека.
Tes - Эффективная температура на солнце - температура, которую ощущает человек, с поправкой на солнечный нагрев. Характеристика знойности погоды. Зависит от высоты солнца над горизонтом, облачности и скорости ветра. Ночью, в пасмурную погоду, а также при ветре 12 м/с и более поправка равна нулю.
P - Атмосферное давление - приведенное к уровню моря атмосферное давление.
Po - Атмосферное давление - измеренное на уровне метеостанции атмосферное давление.
Tmin - Минимальная температура - минимум температуры воздуха на высоте 2 м над землей.
Tmax - Максимальная температура - максимум температуры воздуха на высоте 2 м над землей.
R - Количество осадков - Количество выпавших осадков за период времени, мм. При наведении курсора мыши на число - период времени, за который выпало указанное количество осадков.
R24 - Количество осадков - Количество выпавших осадков за 24 часа, мм.
S - Снежный покров - Высота снежного покрова, см. При наведении курсора мыши на число - состояние снежного покрова и степень покрытия местности в баллах.